Myrtle, Mississippi
Current Conditions -  °F | °C
As of 11:35 PM on Wednesday 22 Oct 2014 (Local Time) from KUOX Reporting Station
Clear Clear  
Wind Chill: 44°   Ceiling: Unl
Heat Index: 48°   Visibility: 10mi
Dew Point: 43°   Wind: 9mph
Humidity: 82%   Direction: 60°ENE
Pressure: 30.17"   Gusts: NA
Location:  34.56°N, 89.12°W
Report Text: KUOX 230435Z AUTO 06008KT 10SM CLR 09/06 A3017 RMK AO2 PWINO PNO
Loading
Personal Weather Stations






























Interactive Weather Map
Tropical Storm Tracking
New forecast layout! Learn more

10-Day Weather Forecast

Advertisements
Track Severe Weather on mobile